Regional Weather Roundup
Issued by NWS Charleston, SC

Current Version | Previous Version | Text Only | Print | Product List | Glossary Off
Versions: 1 2 3 4 5 6 7 8 9 10 11 12 13 14 15 16 17 18 19 20 21 22 23 24 25 26 27 28 29 30 31 32 33 34 35 36 37 38 39 40 41 42 43 44 45 46 47 48 49 50
000 ASUS42 KCHS 180612 RWRCHS Regional Weather Roundup National Weather Service Charleston SC 100 AM EST MON DEC 18 2017 NOTE: "fair" indicates few or no clouds below 12,000 feet with no significant weather and/or obstructions to visibility. Not all stations are quality controlled. Use data with caution, especially dewpoint observations. SCZ027-030-031-034>040-042>050-180700- ...Southeast South Carolina... CITY SKY/WX TMP DP RH WIND PRES REMARKS N Charleston CLOUDY 53 50 89 CALM 30.19R 6HR MIN TEMP: 53; 6HR MAX TEMP: 72; Waterfront Prk N/A 56 52 86 CALM 30.04S Mount Pleasant CLOUDY 54 52 94 CALM 30.19S Johns Island CLOUDY 55 52 88 CALM 30.19S Pinopolis N/A 54 52 94 CALM 30.10S Moncks Corner FAIR 54 48 82 CALM 30.18F Summerville CLOUDY 54 46 76 CALM 30.19F Beaufort MCAS CLEAR 51 51 100 CALM 30.19S 6HR MIN TEMP: 51; 6HR MAX TEMP: 56; Beaufort Arpt FAIR 50 50 100 CALM 30.18F Hilton Head Is CLEAR 55 54 94 S5 30.19S Walterboro CLOUDY 52 46 82 CALM 30.19F Allendale CLOUDY 55 46 71 S3 30.17S ...Southern Midlands and Pee Dee... CITY SKY/WX TMP DP RH WIND PRES REMARKS Georgetown CLOUDY 52 52 100 CALM 30.20S Kingstree CLOUDY 52 45 76 CALM 30.18F Orangeburg CLOUDY 55 43 63 CALM 30.17F 6HR MIN TEMP: 54; 6HR MAX TEMP: 57; Barnwell N/A 57 48 72 CALM 30.17F Aiken CLOUDY 52 37 58 CALM 30.19F Manning CLOUDY 52 32 46 MISG 30.18S Columbia CLOUDY 55 41 59 CALM 30.17F 6HR MIN TEMP: 54; 6HR MAX TEMP: 57; Sumter CLOUDY 53 39 59 NE3 30.16F 6HR MIN TEMP: 52; 6HR MAX TEMP: 55; Florence CLOUDY 53 40 61 CALM 30.19F 6HR MIN TEMP: 52; 6HR MAX TEMP: 54; Myrtle Beach CLOUDY 55 51 86 CALM 30.21S N Myrtle Beach CLOUDY 53 50 89 CALM 30.19F 6HR MIN TEMP: 52; 6HR MAX TEMP: 54; 6HR PCP: TRACE; $$ GAZ063-065-086>088-099>101-113>116-118-119-134>141-150-180700- ...Southeast Georgia... CITY SKY/WX TMP DP RH WIND PRES REMARKS Savannah Arpt CLEAR 51 48 89 CALM 30.19S 6HR MIN TEMP: 50; 6HR MAX TEMP: 57; Hunter AAF CLEAR 53 50 90 CALM N/A 6HR MIN TEMP: 52; 6HR MAX TEMP: 57; Fort Stewart CLEAR 53 48 86 CALM N/A 6HR MIN TEMP: 51; 6HR MAX TEMP: 58; Statesboro MOCLDY 52 47 82 CALM 30.17F Sylvania CLOUDY 56 51 83 CALM 30.18F Claxton FAIR 51 49 94 CALM 30.18S ...CSRA, Central and far Southeast Georgia... CITY SKY/WX TMP DP RH WIND PRES REMARKS Thomson CLOUDY 50 43 76 CALM 30.22S Augusta-Bush CLOUDY 55 42 61 CALM 30.16F 6HR MIN TEMP: 53; 6HR MAX TEMP: 57; Augusta-Daniel CLOUDY 54 42 64 CALM 30.17F Swainsboro CLOUDY 59 55 88 CALM 30.17S Vidalia PTCLDY 54 54 100 CALM 30.17S Eastman MOCLDY 59 51 76 CALM 30.19R Hazlehurst FAIR 60 57 91 SW3 30.16R Alma FOG 55 53 93 CALM 30.16S VSB 3/4 6HR MIN TEMP: 54; 6HR MAX TEMP: 66; Waycross PTCLDY 57 54 91 CALM 30.17S FOG Jesup NOT AVBL Baxley FAIR 54 54 100 CALM 30.17S Brunswick CLEAR 59 55 88 SW3 30.19S Saint Simons CLOUDY 59 58 96 SW5 30.19R 6HR MIN TEMP: 55; 6HR MAX TEMP: 63; $$ SCZ027-028-034-036>038-045-046-048>050-GAZ119-141-180700- ...Lake and Supplemental Coastal Observations... STATION/POSITION TIME TEMP WIND PRES WAVE SWELL AIR SEA DIR/SP/G HT/PER HT/PER/DIR (UTC) (F) (DEG/KT/KT) (MB) (FT/S) (FT/S/D) Winyah Bay 0445 53 360/ 1 1023.0 Lake Murray 0520 52 CALM / 2 1021.3F ACE Basin NERRS 0445 53 CALM 1022.0 Fort Pulaski 0548 56 53 300/ 2/ 2 1022.3F Sapelo Island 0500 57 200/ 4 1022.0 $$ ANZ835-935-AMZ111-154-330-350-352-354-370-450-454-472-180700- ...C-MAN and Buoy Observations... STATION/POSITION TIME TEMP WIND PRES WAVE SWELL AIR SEA DIR/SP/G HT/PER HT/PER/DIR (UTC) (F) (DEG/KT/KT) (MB) (FT/S) (FT/S/D) Buoy 41004 0550 71 73 210/ 12/ 14 1021.6F 2/10 2/100/10 Buoy 41008 0550 62 59 190/ 8/ 10 1022.1R 1/10 2/ 90/10 Folly Beach CMAN 0500 55 120/ 3/ 3 1022.3F Capers Nearshore 0508 53 56 40/ 4/ 6 1021.9F STATION/POSITION TIME TEMP WIND PRES WAVE SWELL AIR SEA DIR/SP/G HT/PER HT/PER/DIR (UTC) (F) (DEG/KT/KT) (MB) (FT/S) (FT/S/D) 5E St. Marys GA 0530 61 N/A 1/10 Frying Pan Buoy 0550 64 67 40/ 4/ 4 1022.0F 2/10 2/120/10 Buoy 41025 0550 56 72 330/ 10/ 14 1021.7F 2/10 2/150/10 Cape Lookout NC 0500 50/ 5/ 5 1022.4F Buoy 41002 0550 69 74 220/ 10/ 14 1023.7F 2/10 2/130/10 Buoy 41010 NOT AVBL St Augustine FL 0600 64 65 230/ 7/ 8 1023.1F $$

USA.gov is the U.S. government's official web portal to all federal, state and local government web resources and services.